Notices

What's New in latest Release from April 7th, 2021:

- Updated Glossary, including Speed of Maximum Gust, and Total Hourly Precipitation

- Updated national and regional climate services offices contacts and prices information

- Addition of station inventory lists for 1981-2010, 1971-2000, and 1961-1990 Normals.

If you haven't already, please take our survey and provide feedback about our website: https://eccc.sondage-survey.ca/f/LanguageSelection.aspx?s=442ca660-fcf1-47c0-95a9-59707d6fd709

Hourly Data Report for December 30, 2020

FORT GOOD HOPE CS
NORTHWEST TERRITORIES
Current Station Operator: ECCC - MSC

66°14'32.044" N
128°38'39.081" W
81.70 m
2201450
71491
ZGH

Download Data

Hourly Data (December 2020)
Hourly Data Report for December 30, 2020
TIME
LST
Temp Definition
°C
Dew Point Definition
°C
Rel Hum Definition
%
Precip. Amount Definition
mm

Wind Dir Definition
10's deg

Wind Spd Definition
km/h
Visibility Definition
km
Stn Press Definition
kPa
Hmdx Definition


Wind Chill Definition


Weather Definition


00:00 -18.8 -21.1 82 0.0 0 1   100.31   -20 LegendNANA
01:00 -18.6 -20.8 82 0.0 27 8   100.31   -25 LegendNANA
02:00 -18.7 -21.0 82 0.0 28 6   100.35   -24 LegendNANA
03:00 -19.0 -21.4 81 0.2 33 4   100.40   -22 LegendNANA
04:00 -19.1 -21.5 82 0.2 33 4   100.45   -22 LegendNANA
05:00 -19.2 -21.5 82 0.3 33 3   100.47   -22 LegendNANA
06:00 -19.2 -21.5 82 0.4 33 3   100.47   -22 LegendNANA
07:00 -19.2 -21.6 82 0.2 30 5   100.52   -23 LegendNANA
08:00 -19.3 -21.6 82 0.3 30 5   100.52   -23 LegendNANA
09:00 -19.3 -21.7 82 0.2 29 3   100.54   -22 LegendNANA
10:00 -19.4 -21.8 81 0.0 29 5   100.56   -24 LegendNANA
11:00 -19.6 -21.9 81 0.0 29 5   100.59   -24 LegendNANA
12:00 -19.7 -22.0 81 0.0 30 2   100.62   -21 LegendNANA
13:00 -19.7 -22.1 81 0.0 32 4   100.64   -23 LegendNANA
14:00 -19.7 -22.1 81 0.0 31 5   100.68   -24 LegendNANA
15:00 -19.8 -22.2 81 0.0 33 5   100.70   -24 LegendNANA
16:00 -20.2 -22.6 81 0.0 35 3   100.72   -23 LegendNANA
17:00 -20.8 -23.3 80 0.0 1 2   100.73   -23 LegendNANA
18:00 -21.2 -23.8 80 0.0   0   100.76     LegendNANA
19:00 -21.4 -23.9 80 0.0   0   100.74     LegendNANA
20:00 -22.0 -24.6 79 0.0 2 2   100.74   -24 LegendNANA
21:00 -22.8 -25.4 79 0.0 8 2   100.75   -25 LegendNANA
22:00 -23.3 -26.0 78 0.0 8 4   100.73   -27 LegendNANA
23:00 -23.7 -26.5 78 0.0 8 3   100.74   -27 LegendNANA

Notes on Data Quality.

Legend

  • E = Estimated
  • M = Missing
  • NA = Not Available*
  • [empty] = Indicates an unobserved value
Date modified: